| time (UTC) | temp C | wind direction | speed KPH | gust KPH | rain 1hr cm | rain 24hr cm | rain mn cm | humidity % | barometer mb |
| 20260510190032 | 21 | 178 | 16.1 | 41.8 | 0.00 | 0.00 | 0.00 | 32 | 1015.2 |
| 20260510184530 | 21 | 213 | 22.5 | 33.8 | 0.00 | 0.00 | 0.00 | 32 | 1015.5 |
| 20260510183032 | 20 | 164 | 19.3 | 33.8 | 0.00 | 0.00 | 0.00 | 33 | 1015.6 |
| 20260510181535 | 20 | 221 | 19.3 | 41.8 | 0.00 | 0.00 | 0.00 | 34 | 1015.7 |
| 20260510180031 | 20 | 177 | 19.3 | 38.6 | 0.00 | 0.00 | 0.00 | 35 | 1015.9 |
| 20260510174529 | 19 | 194 | 19.3 | 33.8 | 0.00 | 0.00 | 0.00 | 38 | 1016.0 |
| 20260510173030 | 19 | 181 | 22.5 | 35.4 | 0.00 | 0.00 | 0.00 | 37 | 1016.2 |
| 20260510171531 | 18 | 165 | 19.3 | 30.6 | 0.00 | 0.00 | 0.00 | 41 | 1016.4 |
| 20260510170034 | 18 | 207 | 20.9 | 32.2 | 0.00 | 0.00 | 0.00 | 41 | 1016.5 |
| 20260510164542 | 17 | 184 | 20.9 | 30.6 | 0.00 | 0.00 | 0.00 | 42 | 1016.5 |
| 20260510163033 | 16 | 195 | 17.7 | 24.1 | 0.00 | 0.00 | 0.00 | 45 | 1016.7 |
| 20260510161531 | 15 | 208 | 16.1 | 22.5 | 0.00 | 0.00 | 0.00 | 46 | 1016.8 |
| 20260510160032 | 15 | 182 | 16.1 | 25.7 | 0.00 | 0.00 | 0.00 | 49 | 1017.1 |
| 20260510154545 | 14 | 186 | 14.5 | 27.4 | 0.00 | 0.00 | 0.00 | 54 | 1017.3 |
| 20260510153031 | 13 | 198 | 19.3 | 24.1 | 0.00 | 0.00 | 0.00 | 56 | 1017.4 |
| 20260510151530 | 12 | 184 | 17.7 | 24.1 | 0.00 | 0.00 | 0.00 | 59 | 1017.5 |
| 20260510150030 | 12 | 178 | 19.3 | 25.7 | 0.00 | 0.00 | 0.00 | 62 | 1017.5 |
| 20260510144533 | 11 | 163 | 16.1 | 22.5 | 0.00 | 0.00 | 0.00 | 64 | 1017.6 |
| 20260510143039 | 11 | 204 | 14.5 | 24.1 | 0.00 | 0.00 | 0.00 | 67 | 1017.6 |
| 20260510141532 | 10 | 197 | 16.1 | 19.3 | 0.00 | 0.00 | 0.00 | 69 | 1017.7 |
| 20260510140031 | 10 | 205 | 12.9 | 16.1 | 0.00 | 0.00 | 0.00 | 72 | 1017.8 |
| 20260510134530 | 9 | 205 | 9.7 | 16.1 | 0.00 | 0.00 | 0.00 | 76 | 1017.7 |
| 20260510133031 | 7 | 198 | 8.0 | 11.3 | 0.00 | 0.00 | 0.00 | 83 | 1017.8 |
| 20260510131542 | 6 | 177 | 4.8 | 8.0 | 0.00 | 0.00 | 0.00 | 82 | 1017.8 |
| 20260510130032 | 5 | 197 | 3.2 | 8.0 | 0.00 | 0.00 | 0.00 | 82 | 1017.8 |
| 20260510124535 | 5 | 211 | 4.8 | 8.0 | 0.00 | 0.00 | 0.00 | 81 | 1017.8 |
| 20260510123032 | 5 | 182 | 4.8 | 8.0 | 0.00 | 0.00 | 0.00 | 82 | 1017.9 |
| 20260510121536 | 5 | 175 | 3.2 | 6.4 | 0.00 | 0.00 | 0.00 | 82 | 1017.8 |
| 20260510120034 | 5 | 180 | 3.2 | 4.8 | 0.00 | 0.00 | 0.00 | 81 | 1018.1 |
| 20260510114529 | 6 | 180 | 4.8 | 8.0 | 0.00 | 0.00 | 0.00 | 81 | 1018.1 |
| 20260510113030 | 6 | 181 | 3.2 | 8.0 | 0.00 | 0.00 | 0.00 | 81 | 1018.0 |
| 20260510111531 | 6 | 167 | 4.8 | 9.7 | 0.00 | 0.00 | 0.00 | 82 | 1018.0 |
| 20260510110031 | 5 | 153 | 3.2 | 8.0 | 0.00 | 0.00 | 0.00 | 83 | 1018.1 |
| 20260510104532 | 6 | 153 | 4.8 | 11.3 | 0.00 | 0.00 | 0.00 | 81 | 1018.2 |
| 20260510103029 | 6 | 154 | 9.7 | 14.5 | 0.00 | 0.00 | 0.00 | 81 | 1018.3 |
| 20260510101529 | 6 | 142 | 9.7 | 14.5 | 0.00 | 0.00 | 0.00 | 83 | 1018.3 |
| 20260510100031 | 6 | 126 | 8.0 | 11.3 | 0.00 | 0.00 | 0.00 | 83 | 1018.4 |
| 20260510094535 | 6 | 117 | 6.4 | 11.3 | 0.00 | 0.00 | 0.00 | 82 | 1018.3 |
| 20260510093030 | 6 | 134 | 8.0 | 11.3 | 0.00 | 0.00 | 0.00 | 82 | 1018.4 |
| 20260510091532 | 6 | 139 | 6.4 | 12.9 | 0.00 | 0.00 | 0.00 | 81 | 1018.3 |
| 20260510090029 | 7 | 130 | 8.0 | 11.3 | 0.00 | 0.00 | 0.00 | 81 | 1018.4 |
| 20260510084533 | 7 | 101 | 8.0 | 11.3 | 0.00 | 0.00 | 0.00 | 83 | 1018.7 |
| 20260510083028 | 7 | 102 | 6.4 | 9.7 | 0.00 | 0.00 | 0.00 | 83 | 1018.7 |
| 20260510081530 | 7 | 69 | 8.0 | 12.9 | 0.00 | 0.00 | 0.00 | 83 | 1018.7 |
| 20260510080034 | 7 | 43 | 4.8 | 8.0 | 0.00 | 0.00 | 0.00 | 83 | 1018.9 |
| 20260510074530 | 6 | 38 | 6.4 | 8.0 | 0.00 | 0.00 | 0.00 | 83 | 1018.9 |
| 20260510073030 | 6 | 37 | 6.4 | 8.0 | 0.00 | 0.00 | 0.00 | 82 | 1018.9 |
| 20260510071529 | 6 | 13 | 4.8 | 8.0 | 0.00 | 0.00 | 0.00 | 82 | 1019.0 |
| 20260510070028 | 7 | 11 | 6.4 | 8.0 | 0.00 | 0.00 | 0.00 | 79 | 1018.8 |
| 20260510064544 | 8 | 26 | 8.0 | 12.9 | 0.00 | 0.00 | 0.00 | 78 | 1018.8 |
| 20260510063032 | 7 | 115 | 3.2 | 17.7 | 0.00 | 0.00 | 0.00 | 81 | 1018.8 |
| 20260510061533 | 8 | 44 | 4.8 | 9.7 | 0.00 | 0.00 | 0.00 | 76 | 1018.9 |
| 20260510060030 | 8 | 167 | 6.4 | 12.9 | 0.00 | 0.00 | 0.00 | 77 | 1018.7 |
| 20260510054528 | 8 | 167 | 8.0 | 14.5 | 0.00 | 0.00 | 0.00 | 76 | 1018.8 |
| 20260510053041 | 9 | 152 | 11.3 | 14.5 | 0.00 | 0.00 | 0.00 | 76 | 1018.7 |
| 20260510051545 | 8 | 156 | 9.7 | 16.1 | 0.00 | 0.00 | 0.00 | 77 | 1018.6 |
| 20260510050031 | 8 | 141 | 9.7 | 14.5 | 0.00 | 0.00 | 0.00 | 77 | 1018.7 |
| 20260510044530 | 9 | 154 | 9.7 | 16.1 | 0.00 | 0.00 | 0.00 | 77 | 1018.6 |
| 20260510043030 | 9 | 136 | 11.3 | 17.7 | 0.00 | 0.00 | 0.00 | 76 | 1018.6 |
| 20260510041531 | 9 | 144 | 9.7 | 14.5 | 0.00 | 0.00 | 0.00 | 75 | 1018.6 |
| 20260510040036 | 10 | 130 | 11.3 | 16.1 | 0.00 | 0.00 | 0.00 | 73 | 1018.6 |
| 20260510034532 | 10 | 132 | 12.9 | 16.1 | 0.00 | 0.00 | 0.00 | 72 | 1018.4 |
| 20260510033032 | 10 | 130 | 9.7 | 14.5 | 0.00 | 0.00 | 0.00 | 70 | 1018.3 |
| 20260510031531 | 11 | 136 | 11.3 | 14.5 | 0.00 | 0.00 | 0.00 | 67 | 1018.1 |
| 20260510030031 | 12 | 113 | 9.7 | 14.5 | 0.00 | 0.00 | 0.00 | 66 | 1018.1 |
| 20260510024530 | 12 | 113 | 11.3 | 16.1 | 0.00 | 0.00 | 0.00 | 62 | 1017.8 |
| 20260510023030 | 13 | 117 | 12.9 | 16.1 | 0.00 | 0.00 | 0.00 | 60 | 1017.6 |
| 20260510021533 | 14 | 102 | 11.3 | 16.1 | 0.00 | 0.00 | 0.00 | 57 | 1017.6 |
| 20260510020032 | 15 | 121 | 11.3 | 14.5 | 0.00 | 0.00 | 0.00 | 56 | 1017.6 |
| 20260510014530 | 15 | 84 | 8.0 | 17.7 | 0.00 | 0.00 | 0.00 | 54 | 1017.6 |
| 20260510013034 | 16 | 64 | 11.3 | 17.7 | 0.00 | 0.00 | 0.00 | 53 | 1017.7 |
| 20260510011532 | 16 | 51 | 6.4 | 14.5 | 0.00 | 0.00 | 0.00 | 49 | 1017.6 |
| 20260510010030 | 17 | 266 | 11.3 | 19.3 | 0.00 | 0.00 | 0.00 | 48 | 1017.8 |
| 20260510004531 | 17 | 243 | 8.0 | 19.3 | 0.00 | 0.00 | 0.00 | 45 | 1017.8 |
| 20260510003031 | 17 | 227 | 16.1 | 22.5 | 0.00 | 0.00 | 0.00 | 44 | 1017.7 |
| 20260510001531 | 17 | 243 | 14.5 | 20.9 | 0.00 | 0.00 | 0.00 | 43 | 1017.7 |
| 20260510000031 | 17 | 251 | 16.1 | 24.1 | 0.00 | 0.00 | 0.00 | 42 | 1017.6 |
| 20260509234530 | 17 | 204 | 8.0 | 12.9 | 0.00 | 0.00 | 0.00 | 42 | 1017.5 |
| 20260509233032 | 17 | 248 | 8.0 | 12.9 | 0.00 | 0.00 | 0.00 | 41 | 1017.7 |
| 20260509231533 | 17 | 166 | 3.2 | 9.7 | 0.00 | 0.00 | 0.00 | 41 | 1017.7 |
| 20260509230032 | 17 | 257 | 6.4 | 12.9 | 0.00 | 0.00 | 0.00 | 42 | 1017.7 |
| 20260509224531 | 17 | 198 | 6.4 | 12.9 | 0.00 | 0.00 | 0.00 | 42 | 1017.8 |
| 20260509223028 | 16 | 244 | 4.8 | 16.1 | 0.00 | 0.00 | 0.00 | 42 | 1018.0 |
| 20260509221530 | 17 | 291 | 4.8 | 11.3 | 0.00 | 0.00 | 0.00 | 41 | 1017.9 |
| 20260509220038 | 16 | 239 | 8.0 | 19.3 | 0.00 | 0.00 | 0.00 | 41 | 1017.9 |
| 20260509214532 | 16 | 324 | 4.8 | 12.9 | 0.00 | 0.00 | 0.00 | 40 | 1018.0 |
| 20260509213033 | 16 | 242 | 14.5 | 19.3 | 0.00 | 0.00 | 0.00 | 41 | 1018.1 |
| 20260509211531 | 16 | 240 | 3.2 | 20.9 | 0.00 | 0.00 | 0.00 | 40 | 1018.1 |
| 20260509210031 | 16 | 263 | 6.4 | 14.5 | 0.00 | 0.00 | 0.00 | 40 | 1018.1 |
| 20260509204531 | 17 | 187 | 0.0 | 11.3 | 0.00 | 0.00 | 0.00 | 39 | 1018.1 |
| 20260509203036 | 16 | 269 | 8.0 | 22.5 | 0.00 | 0.00 | 0.00 | 39 | 1018.0 |
| 20260509201530 | 16 | 0 | 1.6 | 11.3 | 0.00 | 0.00 | 0.00 | 40 | 1017.9 |
| 20260509200038 | 16 | 146 | 4.8 | 17.7 | 0.00 | 0.00 | 0.00 | 40 | 1017.9 |
| 20260509194545 | 16 | 307 | 6.4 | 12.9 | 0.00 | 0.00 | 0.00 | 40 | 1018.0 |
| 20260509193036 | 16 | 232 | 12.9 | 19.3 | 0.00 | 0.00 | 0.00 | 40 | 1018.2 |
| 20260509191533 | 16 | 60 | 1.6 | 14.5 | 0.00 | 0.00 | 0.00 | 40 | 1018.1 |